Regional Weather Roundup
Issued by NWS

Home | Current Version | Previous Version | Text Only | Print | Product List | Glossary On
Versions: 1 2 3 4 5 6 7 8 9 10 11 12 13 14 15 16 17 18 19 20 21 22 23 24 25 26 27 28 29 30 31 32 33 34 35 36 37 38 39 40 41 42 43 44 45 46 47 48 49 50
000
ASUS43 KDTX 281610
RWRMI
MICHIGAN HOURLY REGIONAL WEATHER ROUNDUP
NATIONAL WEATHER SERVICE DETROIT/PONTIAC MI
1200 PM EDT WED JUN 28 2017

NOTE: "FAIR" INDICATES FEW OR NO CLOUDS BELOW 12,000 FEET WITH NO
SIGNIFICANT WEATHER AND/OR OBSTRUCTION TO VISIBILITY.

MIZ047>049-052>055-059>063-066>070-074>076-081>083-281700-
SOUTHEAST LOWER MICHIGAN

CITY           SKY/WX    TMP DP  RH WIND       PRES   REMARKS
ADRIAN         MOSUNNY   74  47  38 SW14G22   30.12R
ALMA           CLOUDY    72  48  43 S13G26    30.06S
ANN ARBOR      MOSUNNY   72  50  45 S10G21    30.10S
BAD AXE        CLOUDY    72  51  47 SW10G16   30.07S
CARO           CLOUDY    72  53  51 SW10      30.05F
DETROIT CITY   CLOUDY    74  50  42 W8G20     30.09F
DETROIT        CLOUDY    74  49  41 SW13      30.10F
FLINT          CLOUDY    74  48  39 SW12      30.07F
GROSSE ILE     MOSUNNY   71  56  58 S12       30.09S
HILLSDALE      CLOUDY    72  46  40 S14       30.10F
HOWELL         CLOUDY    73  43  34 S12G17    30.09S

CITY           SKY/WX    TMP DP  RH WIND       PRES   REMARKS
JACKSON        CLOUDY    73  49  42 SW14G20   30.09S
LAMBERTVILLE   CLOUDY    73  48  40 SW10G16   30.11R
LANSING        PTSUNNY   75  47  36 S14       30.07S
LAPEER         FAIR      74  47  38 SW13      30.08S
MASON          CLOUDY    72  49  44 SW7       30.08S
MONROE         MOSUNNY   74  49  40 SW10      30.09F
MT. CLEMENS    CLOUDY    75  50  41 SW14      30.08F
PONTIAC        CLOUDY    73  46  38 S12       30.08S
PORT HOPE        N/A     72  51  47 SW12      30.04S
PORT HURON     MOSUNNY   72  50  46 S8        30.09F
TRI CITIES     MOSUNNY   74  52  46 SW18G25   30.05S
MIDLAND        FAIR      74  49  41 SW8       30.04S
TROY           CLOUDY    75  41  29 S13G20    30.10F
SAGINAW HB     MOSUNNY   73  45  35 SW14      30.05S
$$
MIZ043>046-050>051-056>058-064>065-071>073-077>080-281700-
SOUTHWEST LOWER MICHIGAN

CITY           SKY/WX    TMP DP  RH WIND       PRES   REMARKS
BATTLE CREEK   CLOUDY    74  49  41 S18       30.07F
BENTON HARBOR  CLOUDY    74  50  42 S14       30.02F
BIG RAPIDS     CLOUDY    70  48  45 SW12G23   30.00F
COLDWATER      CLOUDY    72  47  40 SW13      30.10S
FREMONT        PTSUNNY   70  49  46 S9G16     29.98F
HOLLAND        PTSUNNY   72  52  49 S13G24    30.02F
GRAND RAPIDS   CLOUDY    73  52  47 S18       30.02F
IONIA          FAIR      73  47  40 S14G23    30.04F
KALAMAZOO      CLOUDY    73  48  41 S14       30.06F
LUDINGTON      CLOUDY    69  53  57 S18       29.93F
MARSHALL       CLOUDY    74  48  40 S12G17    30.08F
MOUNT PLEASANT CLOUDY    73  47  38 SW13G23   30.03S
MUSKEGON       CLOUDY    72  52  49 S18G28    29.98F
SOUTH HAVEN    CLOUDY    73  52  49 S13G21    30.02F
$$
MIZ016>042-281700-
NORTHERN LOWER MICHIGAN

CITY           SKY/WX    TMP DP  RH WIND       PRES   REMARKS
ALPENA         CLOUDY    74  49  41 SW17G23   30.00S
BEAVER ISLAND  CLOUDY    70  52  52 S9G20     29.92F
BELLAIRE       CLOUDY    72  49  44 S8G16     29.95F
CADILLAC       CLOUDY    71  51  50 S14G23    29.98F
CHARLEVOIX     CLOUDY    71  53  51 S10G16    29.96F
FRANKFORT      PTSUNNY   72  53  50 S15G24    29.91F
GAYLORD        CLOUDY    70  49  47 SW17G24   29.99F
GRAYLING       CLOUDY    71  52  51 S10       30.00F
HARBOR SPRINGS CLOUDY    69  52  53 SW10      29.95F
HOUGHTON LAKE  CLOUDY    71  49  45 SW14      30.01F
MANISTEE       CLOUDY    71  55  56 S12G21    29.93F
OSCODA         CLOUDY    74  50  42 SW12G21   30.01F
PELLSTON       CLOUDY    72  50  45 S8        29.96F
ROGERS CITY    MOSUNNY   73  49  42 SW14G22   29.98F
TRAVERSE CITY  CLOUDY    74  52  46 VRB7      29.92F
$$
MIZ007>008-015-281700-
EASTERN UPPER MICHIGAN

CITY           SKY/WX    TMP DP  RH WIND       PRES   REMARKS
KINROSS        CLOUDY    68  53  58 S9        29.95S
MACKINAC ISLAN CLOUDY    70  53  55 SW8       29.94F
NEWBERRY       CLOUDY    67  53  61 S15G22    29.91F
S. S. MARIE    MOSUNNY   73  53  49 S17       29.92S
MUNISING         N/A     71  53  52 S9        29.83F
$$
MIZ004>006-011>014-085-281700-
CENTRAL UPPER MICHIGAN

CITY           SKY/WX    TMP DP  RH WIND       PRES   REMARKS
MANISTIQUE     CLOUDY    62  58  85 S7        29.88F
ESCANABA       CLOUDY    65  57  75 S15       29.84F
MENOMINEE      LGT RAIN  64  58  80 SW13      29.84S
SAWYER-GWINN   SUNNY     68  52  56 S13       29.83F
$$
MIZ001>003-009>011-084-281700-
WESTERN UPPER MICHIGAN

CITY           SKY/WX    TMP DP  RH WIND       PRES   REMARKS
IRON MOUNTAIN  LGT RAIN  61  55  81 SE6       29.81F
HOUGHTON       CLOUDY    65  52  62 E8        29.75F
COPPER HARBOR    N/A     69  50  50 SW8       29.77F
IRONWOOD       LGT RAIN  62  55  77 S9        29.71F
$$

ABBREVIATIONS USED IN REMARKS
   TC - TEMPERATURE IN CELSIUS
  WCI - WIND CHILL INDEX
   HX - HEAT INDEX
  VSB - VISIBILITY




USA.gov is the U.S. government's official web portal to all federal, state and local government web resources and services.